Location: Black River Observatory
(43.1000°N, 82.6200°W)
Time: 11:11:54
(UTC-05:00)

Daily predictions for brighter satellites

Satellite Brightness Start Highest point End
(mag) Time Altitude Azimuth Time Altitude Azimuth Time Altitude Azimuth
Cosmos 2263 Rocket 3.2 17:16:49 10° SW 17:22:11 46° WNW 17:27:38 10° NNE
Cosmos 2218 Rocket 4.4 17:21:53 10° N 17:27:46 39° ENE 17:33:33 10° SE
SMAP 3.4 17:23:27 10° SE 17:27:49 42° ENE 17:32:12 10° N
IRS-1A Rocket 4.3 17:22:33 10° SSE 17:28:03 86° ENE 17:33:37 10° NNW
Cosmos 1048 Rocket 4.2 17:23:54 10° NNW 17:29:14 86° WSW 17:34:36 10° SSE
Cosmos 2181 Rocket 4.1 17:23:47 10° S 17:30:02 64° E 17:36:23 10° NNE
Cosmos 1455 Rocket 4.0 17:27:30 10° NNE 17:31:12 26° ENE 17:34:54 10° SE
Cosmos 1536 2.8 17:27:20 10° N 17:31:26 80° E 17:35:30 10° S
CSL-04 Rocket 4.4 17:29:28 10° S 17:34:50 60° WSW 17:40:19 10° NNW
Abrixas 3.7 17:32:54 10° WNW 17:35:31 27° N 17:38:04 10° ENE
Meteor 1-11 Rocket 4.4 17:31:34 10° NNW 17:37:01 60° W 17:42:25 10° S
OTV 4 2.9 17:37:18 10° WSW 17:39:36 20° SSW 17:41:53 10° SE
Cosmos 1295 Rocket 4.4 17:36:02 10° N 17:42:12 75° E 17:48:16 10° SSE
GEOS 3 Rocket 4.3 17:39:26 10° ESE 17:43:56 32° NE 17:48:27 10° NNW
Cosmos 1812 3.7 17:41:00 10° SSE 17:44:16 27° E 17:47:35 10° NNE
Cosmos 1844 Rocket 2.7 17:42:27 10° SSW 17:47:58 67° ESE 17:53:34 10° NNE
PAYLOAD A 4.1 17:44:36 10° S 17:49:23 78° WSW 17:54:22 10° NNW
Cosmos 1346 Rocket 4.4 17:48:00 10° ESE 17:50:16 15° E 17:51:16 14° ENE
Cosmos 2341 Rocket 4.3 17:45:21 10° NNW 17:51:33 71° W 17:57:43 10° S
SPOT 3 Rocket 3.5 17:51:03 10° SSE 17:56:15 84° ENE 18:01:27 10° NNW
MSX 3.9 17:50:47 10° SSE 17:56:22 56° ENE 18:02:00 10° N
Cosmos 1844 3.7 17:55:59 10° S 18:01:28 64° ESE 18:06:59 10° NNE
CZ-4 R/B 1.9 17:58:11 10° S 18:02:20 65° WSW 18:06:29 10° NNW
SJ-12 4.1 17:59:38 10° S 18:03:43 75° WSW 18:07:51 10° NNW
CORIOLIS 4.1 17:59:34 10° SSE 18:05:00 85° ENE 18:10:26 10° NNW
COSMOS 2487 4.0 18:03:36 10° NNE 18:05:47 19° NE 18:05:47 19° NE
USA 234 3.5 18:01:00 11° NE 18:07:14 65° NW 18:13:41 10° WSW
USA 32 4.0 18:05:49 10° S 18:11:02 89° E 18:16:18 10° N
ASTRO F (AKARI) 4.2 18:08:28 12° NNE 18:11:16 61° ESE 18:14:22 10° S
Meteor 1-12 Rocket 4.3 18:05:42 10° N 18:11:26 62° ENE 18:17:13 10° SSE
Cosmos 1975 3.1 18:09:33 10° N 18:13:30 44° ENE 18:17:22 10° SSE
IDEFIX/ARIANE 42P 2.9 18:09:30 10° S 18:14:42 71° WSW 18:19:54 10° NNW
Cosmos 2278 Rocket 2.3 18:13:09 10° S 18:18:36 54° ESE 18:23:01 16° NE
Cosmos 1544 Rocket 3.8 18:15:08 10° NNW 18:19:36 76° W 18:24:03 10° S
COSMO-SKYMED 1 2.8 18:15:50 12° NNE 18:19:39 46° E 18:23:49 10° S
NOSS 3-3 (A) 4.2 18:16:28 10° SSW 18:22:27 54° ESE 18:26:54 20° NE
NOSS 3-3 (C) 4.2 18:16:35 10° SSW 18:22:33 53° ESE 18:26:58 20° NE
Nadezhda 3 Rocket 4.3 18:17:08 10° SSE 18:22:52 41° E 18:28:40 10° NNE
Cosmos 864 Rocket 4.5 18:17:34 10° N 18:23:52 86° E 18:30:12 10° S
Cosmos 494 Rocket 4.0 18:21:20 10° NNW 18:26:35 89° ENE 18:31:51 10° SSE
Tiangong 1 3.2 18:28:12 10° S 18:29:51 14° SSE 18:29:51 14° SSE
ATLAS 2AS CENTAUR R/B 3.2 18:22:19 10° NW 18:30:26 79° WSW 18:37:58 10° SSE
ISS -2.5 18:27:52 10° W 18:31:02 43° NNW 18:32:01 32° NNE
Thor Agena Rocket 4.3 18:27:51 10° N 18:32:53 52° WNW 18:37:57 10° SW
Genesis I 3.5 18:32:45 10° NNW 18:36:33 44° NE 18:36:53 43° ENE
Meteor 1-13 Rocket 4.5 18:32:24 10° SSE 18:37:44 45° E 18:41:42 18° NNE
Cosmos 1484 Rocket 2.6 18:34:31 10° SSE 18:38:17 85° WSW 18:42:02 10° NNW
Cosmos 1536 Rocket 3.7 18:35:56 10° S 18:40:23 79° W 18:44:54 10° N
Cosmos 2082 Rocket 2.5 18:37:33 10° NNW 18:42:57 43° ENE 18:45:09 30° ESE
Cosmos 2251 Rocket 4.3 18:41:27 10° NNW 18:46:41 53° WSW 18:51:49 10° S
Cosmos 1833 Rocket 3.1 18:41:26 10° NNW 18:46:45 40° ENE 18:47:38 37° E
NOAA 12 4.0 18:46:06 10° SSE 18:51:18 62° ENE 18:56:30 10° N
Meteor 2-21 Rocket 4.3 18:48:05 10° N 18:54:18 72° E 19:00:26 10° SSE
METEOR-M 4.1 18:50:32 10° SSE 18:55:45 58° ENE 19:01:00 10° N
Cosmos 1500 3.4 18:52:21 10° NNW 18:56:11 69° W 18:59:59 10° S
Meteor 2-16 Rocket 4.3 18:53:11 10° N 18:59:15 65° E 19:05:16 10° SSE
Meteor 1-28 Rocket 3.2 19:00:17 71° SSE 19:00:17 71° SSE 19:03:46 10° S
Cosmos 921 Rocket 3.9 18:58:57 10° S 19:01:34 34° SSE 19:01:34 34° SSE
DMSP B5D1-3 4.5 18:59:44 18° NNE 19:03:42 86° WNW 19:08:51 10° SSW
BREEZE M DEB (TANK) 2.5 18:56:39 10° SW 19:04:00 62° SSE 19:04:05 62° SE
SKYMED 2 4.3 19:04:28 16° N 19:07:44 52° WNW 19:11:56 10° SSW
BREEZE-M R/B 3.7 18:59:15 10° WSW 19:08:56 85° NNW 19:10:11 55° NE
Okean 1-7 Rocket 3.5 19:05:08 10° S 19:09:30 76° SE 19:09:30 76° SE
Meteor 2-4 Rocket 4.3 19:04:45 10° SSE 19:08:15 36° SE 19:08:15 36° SE
Cosmos 1535 Rocket 4.3 19:12:42 10° N 19:19:04 79° E 19:25:18 10° S
SL-24 R/B - RUBIN 2 4.4 19:13:49 10° SSW 19:20:08 82° ESE 19:21:48 54° NE
GEOS 3 Rocket 4.3 19:16:49 10° SSE 19:21:48 52° WSW 19:26:48 10° NW
Cosmos 1934 Rocket 3.8 19:15:47 10° N 19:21:56 66° E 19:28:09 10° SSE
Timation 2 Rocket 4.2 19:19:19 10° NNW 19:26:10 82° WSW 19:33:01 10° SSE
Cosmos 1346 Rocket 4.1 19:22:40 10° SW 19:26:19 38° WNW 19:26:53 35° NW
ATLAS 3B CENTAUR R/B 4.2 19:21:40 10° WSW 19:34:55 31° SSW 19:38:07 24° SSE
SL-8 R/B 4.4 19:35:14 10° WSW 19:38:57 51° W 19:38:57 51° W
CZ-3B DEB 3.4 19:35:45 10° W 19:40:42 52° NNW 19:43:53 38° NNE
Cosmos 1821 Rocket 4.2 19:39:16 10° NNW 19:45:19 67° W 19:51:20 10° S
Cosmos 2297 4.0 19:41:33 10° SW 19:47:09 62° WNW 19:47:18 62° NW
USA 234 4.4 19:48:21 29° N 19:49:32 31° NNW 19:55:06 10° WNW
Cosmos 2278 Rocket 4.0 19:58:22 10° WSW 20:03:01 26° NW 20:04:53 21° NNW
NOSS 3-4 (A) 4.0 19:59:04 10° NW 20:04:34 59° NNW 20:04:34 59° NNW
NOSS 3-4 (C) 4.1 19:59:10 10° NW 20:04:38 58° NNW 20:04:38 58° NNW
BREEZE M DEB (TANK) 3.9 20:01:56 10° WNW 20:06:13 83° WNW 20:06:13 83° WNW
Cosmos 2082 Rocket 3.9 20:22:01 10° NW 20:26:49 29° WSW 20:27:09 29° WSW
Cosmos 1833 Rocket 4.4 20:25:37 10° NW 20:29:26 29° W 20:29:26 29° W
FALCON 9 R/B 4.2 20:42:20 10° W 20:51:03 33° SW 20:51:03 33° SW
